TimePDT,TemperatureF,Dew PointF,Humidity,Sea Level PressureIn,VisibilityMPH,Wind Direction,Wind SpeedMPH,Gust SpeedMPH,PrecipitationIn,Events,Conditions,WindDirDegrees,DateUTC
12:15 AM,60.8,28.4,29,30.31,10.0,Calm,Calm,-,N/A,,Clear,0,2013-08-16 07:15:00
12:35 AM,60.8,26.6,27,30.32,10.0,Calm,Calm,-,N/A,,Clear,0,2013-08-16 07:35:00
12:55 AM,59.0,26.6,29,30.32,10.0,Calm,Calm,-,N/A,,Clear,0,2013-08-16 07:55:00
1:15 AM,60.8,24.8,25,30.31,10.0,NW,6.9,-,N/A,,Clear,310,2013-08-16 08:15:00
1:35 AM,59.0,24.8,27,30.31,10.0,Calm,Calm,-,N/A,,Clear,0,2013-08-16 08:35:00
1:55 AM,57.2,24.8,29,30.31,10.0,Calm,Calm,-,N/A,,Clear,0,2013-08-16 08:55:00
2:15 AM,59.0,23.0,25,30.31,10.0,Calm,Calm,-,N/A,,Clear,0,2013-08-16 09:15:00
2:35 AM,55.4,23.0,29,30.31,10.0,Calm,Calm,-,N/A,,Clear,0,2013-08-16 09:35:00
2:55 AM,55.4,24.8,31,30.31,10.0,Calm,Calm,-,N/A,,Clear,0,2013-08-16 09:55:00
3:15 AM,51.8,23.0,33,30.31,10.0,Calm,Calm,-,N/A,,Clear,0,2013-08-16 10:15:00
3:35 AM,51.8,23.0,33,30.31,10.0,Calm,Calm,-,N/A,,Clear,0,2013-08-16 10:35:00
3:55 AM,51.8,26.6,38,30.31,10.0,Calm,Calm,-,N/A,,Clear,0,2013-08-16 10:55:00
4:15 AM,48.2,23.0,37,30.31,10.0,North,3.5,-,N/A,,Clear,10,2013-08-16 11:15:00
4:35 AM,50.0,24.8,37,30.31,10.0,Calm,Calm,-,N/A,,Clear,0,2013-08-16 11:35:00
4:55 AM,48.2,24.8,40,30.31,10.0,West,9.2,-,N/A,,Scattered Clouds,270,2013-08-16 11:55:00
5:15 AM,50.0,26.6,40,30.31,10.0,North,3.5,-,N/A,,Scattered Clouds,10,2013-08-16 12:15:00
5:35 AM,50.0,26.6,40,30.31,10.0,East,4.6,-,N/A,,Clear,90,2013-08-16 12:35:00
5:55 AM,51.8,26.6,38,30.31,10.0,Calm,Calm,-,N/A,,Clear,0,2013-08-16 12:55:00
6:15 AM,48.2,26.6,43,30.32,10.0,NE,4.6,-,N/A,,Clear,50,2013-08-16 13:15:00
6:35 AM,46.4,26.6,46,30.32,10.0,NNE,8.1,-,N/A,,Scattered Clouds,20,2013-08-16 13:35:00
6:55 AM,48.2,28.4,46,30.32,10.0,NNE,4.6,-,N/A,,Scattered Clouds,30,2013-08-16 13:55:00
7:15 AM,53.6,30.2,41,30.33,10.0,Calm,Calm,-,N/A,,Clear,0,2013-08-16 14:15:00
7:35 AM,59.0,30.2,34,30.33,10.0,Calm,Calm,-,N/A,,Clear,0,2013-08-16 14:35:00
7:55 AM,60.8,30.2,31,30.33,10.0,Calm,Calm,-,N/A,,Clear,0,2013-08-16 14:55:00
8:15 AM,66.2,30.2,26,30.33,10.0,Calm,Calm,-,N/A,,Scattered Clouds,0,2013-08-16 15:15:00
8:35 AM,69.8,30.2,23,30.33,10.0,SSE,4.6,-,N/A,,Clear,160,2013-08-16 15:35:00
8:55 AM,69.8,30.2,23,30.33,10.0,SE,5.8,-,N/A,,Scattered Clouds,130,2013-08-16 15:55:00
9:15 AM,69.8,32.0,25,30.32,10.0,SE,3.5,9.2,N/A,,Clear,130,2013-08-16 16:15:00
9:35 AM,73.4,32.0,22,30.33,10.0,SSE,5.8,-,N/A,,Clear,150,2013-08-16 16:35:00
9:55 AM,75.2,32.0,21,30.32,10.0,SE,5.8,-,N/A,,Clear,130,2013-08-16 16:55:00
10:15 AM,78.8,33.8,20,30.32,10.0,ESE,11.5,-,N/A,,Clear,110,2013-08-16 17:15:00
10:35 AM,78.8,33.8,20,30.32,10.0,ESE,8.1,-,N/A,,Clear,120,2013-08-16 17:35:00
10:55 AM,80.6,32.0,17,30.32,10.0,ESE,8.1,-,N/A,,Scattered Clouds,120,2013-08-16 17:55:00
11:15 AM,80.6,33.8,18,30.32,10.0,SE,4.6,-,N/A,,Scattered Clouds,130,2013-08-16 18:15:00
11:35 AM,78.8,35.6,21,30.32,10.0,SE,9.2,-,N/A,,Scattered Clouds,130,2013-08-16 18:35:00
11:55 AM,82.4,33.8,17,30.32,10.0,SE,11.5,16.1,N/A,,Scattered Clouds,130,2013-08-16 18:55:00
12:15 PM,82.4,33.8,17,30.31,10.0,ESE,10.4,16.1,N/A,,Scattered Clouds,110,2013-08-16 19:15:00
12:35 PM,82.4,32.0,16,30.31,10.0,Calm,Calm,-,N/A,,Scattered Clouds,0,2013-08-16 19:35:00
12:55 PM,84.2,32.0,15,30.30,10.0,SE,8.1,-,N/A,,Scattered Clouds,130,2013-08-16 19:55:00
1:15 PM,82.4,32.0,16,30.31,10.0,East,5.8,16.1,N/A,,Mostly Cloudy,100,2013-08-16 20:15:00
1:35 PM,84.2,32.0,15,30.30,10.0,West,18.4,25.3,N/A,,Overcast,280,2013-08-16 20:35:00
1:55 PM,84.2,32.0,15,30.30,10.0,WNW,21.9,33.4,N/A,,Mostly Cloudy,290,2013-08-16 20:55:00
2:15 PM,84.2,32.0,15,30.29,10.0,WNW,12.7,32.2,N/A,,Scattered Clouds,290,2013-08-16 21:15:00
2:35 PM,84.2,32.0,15,30.29,10.0,West,16.1,33.4,N/A,,Scattered Clouds,280,2013-08-16 21:35:00
2:55 PM,82.4,33.8,17,30.29,10.0,WNW,17.3,26.5,N/A,,Scattered Clouds,290,2013-08-16 21:55:00
3:15 PM,84.2,32.0,15,30.29,10.0,WNW,3.5,25.3,N/A,,Scattered Clouds,300,2013-08-16 22:15:00
3:35 PM,84.2,33.8,16,30.29,10.0,West,20.7,28.8,N/A,,Clear,280,2013-08-16 22:35:00
3:55 PM,84.2,33.8,16,30.29,10.0,WNW,20.7,32.2,N/A,,Scattered Clouds,290,2013-08-16 22:55:00
4:15 PM,82.4,33.8,17,30.28,10.0,NW,16.1,26.5,N/A,,Scattered Clouds,310,2013-08-16 23:15:00
4:35 PM,84.2,33.8,16,30.28,10.0,West,24.2,29.9,N/A,,Clear,280,2013-08-16 23:35:00
4:55 PM,80.6,35.6,20,30.28,10.0,WNW,19.6,28.8,N/A,,Clear,300,2013-08-16 23:55:00
5:15 PM,80.6,35.6,20,30.28,10.0,West,21.9,27.6,N/A,,Clear,280,2013-08-17 00:15:00
5:35 PM,80.6,35.6,20,30.28,10.0,WNW,26.5,33.4,N/A,,Clear,290,2013-08-17 00:35:00
5:55 PM,80.6,35.6,20,30.27,10.0,West,23.0,32.2,N/A,,Clear,280,2013-08-17 00:55:00
6:15 PM,80.6,35.6,20,30.27,10.0,West,20.7,27.6,N/A,,Clear,280,2013-08-17 01:15:00
6:35 PM,78.8,35.6,21,30.27,10.0,SW,6.9,24.2,N/A,,Clear,230,2013-08-17 01:35:00
6:55 PM,78.8,35.6,21,30.27,10.0,West,4.6,-,N/A,,Clear,270,2013-08-17 01:55:00
7:15 PM,75.2,35.6,24,30.28,10.0,West,13.8,21.9,N/A,,Clear,270,2013-08-17 02:15:00
7:35 PM,73.4,35.6,25,30.28,10.0,NW,19.6,33.4,N/A,,Clear,310,2013-08-17 02:35:00
7:55 PM,71.6,35.6,27,30.28,10.0,NW,12.7,24.2,N/A,,Clear,310,2013-08-17 02:55:00
8:15 PM,71.6,35.6,27,30.29,10.0,NW,8.1,-,N/A,,Clear,310,2013-08-17 03:15:00
8:35 PM,69.8,35.6,28,30.30,10.0,WSW,6.9,-,N/A,,Clear,240,2013-08-17 03:35:00
8:55 PM,68.0,35.6,30,30.30,10.0,WNW,5.8,-,N/A,,Clear,290,2013-08-17 03:55:00
9:15 PM,68.0,35.6,30,30.31,10.0,Calm,Calm,-,N/A,,Clear,0,2013-08-17 04:15:00
9:35 PM,64.4,35.6,34,30.32,10.0,NNE,3.5,-,N/A,,Clear,20,2013-08-17 04:35:00
9:55 PM,66.2,37.4,35,30.32,10.0,Calm,Calm,-,N/A,,Clear,0,2013-08-17 04:55:00
10:15 PM,64.4,35.6,34,30.32,10.0,South,6.9,-,N/A,,Clear,180,2013-08-17 05:15:00
10:35 PM,60.8,35.6,39,30.32,10.0,Calm,Calm,-,N/A,,Clear,0,2013-08-17 05:35:00
10:55 PM,60.8,35.6,39,30.32,10.0,NW,3.5,-,N/A,,Clear,320,2013-08-17 05:55:00
11:15 PM,59.0,35.6,42,30.32,10.0,Calm,Calm,-,N/A,,Clear,0,2013-08-17 06:15:00
11:35 PM,55.4,35.6,47,30.33,10.0,Calm,Calm,-,N/A,,Clear,0,2013-08-17 06:35:00
11:55 PM,57.2,33.8,41,30.33,10.0,Calm,Calm,-,N/A,,Clear,0,2013-08-17 06:55:00